GSAT-18 (41793 NORAD) Tracking and Keplerian Element Data

This shows tracking and keplerian element data for the satellite.

Feedback or suggestion? Click here.




ElementValue
Catalog41793
NameGSAT-18
Epoch Orbit805
Epoch Day348.56337199
Epoch Year2018
RAAN111.9828
Inclination0.0377
Eccentricity0.0001669
Argument of Perigee137.9561
Mean Anonmoly110.0565
Mean Motion1.00271782
Decay Rate-6.6E-07
L11 41793U 16060A 18348.56337199 -.00000066 00000-0 00000+0 0 9996
L22 41793 0.0377 111.9828 0001669 137.9561 110.0565 1.00271782 8056

Live tracking and technical data element details for GSAT-18 (NORAD 41793). GSAT-18 can be tracked NOW for your location showing map with azimuth and elevation plus other details from your city location.

Track the satellite on the map from your city or location and see movement details for azimuth, elevation, latitude, longitude, range, height, and movement on the map or in text.







IsCatalogInMostPopularTable: catalog: 41793, numindb: 106
Update: records affected: 1



GetName: 41793 GSAT-18

Hit Count: updated at: Sat, 15 Dec 2018 14:20:31 GMT